Regional Weather Roundup
Issued by NWS

Home | Current Version | Previous Version | Graphics & Text | Print | Product List | Glossary On
Versions: 1 2 3 4 5 6 7 8 9 10 11 12 13 14 15 16 17 18 19 20 21 22 23 24 25 26 27 28 29 30 31 32 33 34 35 36 37 38 39 40 41 42 43 44 45 46 47 48 49 50
000
ASUS43 KMKX 301200
RWRWI

WISCONSIN REGIONAL WEATHER ROUNDUP
NATIONAL WEATHER SERVICE MILWAUKEE/SULLIVAN WI
700 AM CDT FRI SEP 30 2016

NOTE: "FAIR" INDICATES FEW OR NO CLOUDS BELOW 12,000 FEET WITH NO
SIGNIFICANT WEATHER AND/OR OBSTRUCTIONS TO VISIBILITY.

WIZ001-002-006>008-014>016-023>028-301300-
NORTHWEST WISCONSIN

CITY           SKY/WX    TMP DP  RH WIND       PRES   REMARKS
SUPERIOR ARPT  CLOUDY    53  50  91 E5        30.45S
ASHLAND        CLOUDY    53  51  93 NE12      30.44F
6HR MIN TEMP:  52; 6HR MAX TEMP:  54;

HAYWARD        CLOUDY    49  47  93 NE7       30.43S
6HR MIN TEMP:  49; 6HR MAX TEMP:  53;

SIREN          CLOUDY    51  49  94 NE5       30.42S
CUMBERLAND     CLEAR     45  45 100 N3        30.40S FOG
RICE LAKE      CLEAR     47  46  96 CALM      30.41S FOG
CHETEK         NOT AVBL
LADYSMITH      PTCLDY    47  46  97 N5        30.41S FOG
EAU CLAIRE     NOT AVBL
MENOMONIE      CLEAR     48  47  97 N3        30.37F
NEW RICHMOND   CLEAR     45  45 100 NE3       30.39S FOG
OSCEOLA        FOG       45  45 100 CALM      30.42F VSB 1/4
$$

WIZ003>005-009-010-017-018-301300-
NORTH CENTRAL WISCONSIN

CITY           SKY/WX    TMP DP  RH WIND       PRES   REMARKS
MANITOWISH WTR NOT AVBL
ARBOR VITAE    CLEAR     47  46  97 NE5       30.41S
WOODRUFF       CLEAR     47  46  97 NE5       30.41S
RHINELANDER    CLEAR     47  47 100 N3        30.40S
6HR MIN TEMP:  46; 6HR MAX TEMP:  48;

EAGLE RIVER    PTCLDY    43  43 100 CALM      30.40S FOG
LAND O LAKES   FOG       49  49 100 N9        30.43S VSB 1/2
PHILLIPS       CLOUDY    46  46 100 NE5       30.40S FOG
TOMAHAWK       CLEAR     44  43  97 N3        30.40R
MEDFORD        CLEAR     47  47 100 NE5       30.37S
MERRILL        CLEAR     46  46 100 N3        30.38S
$$

WIZ029-030-035-036-043>047-301300-
CENTRAL WISCONSIN

CITY           SKY/WX    TMP DP  RH WIND       PRES   REMARKS
WAUSAU         CLOUDY    51  48  89 N6        30.34S
6HR MIN TEMP:  49; 6HR MAX TEMP:  54;

MOSINEE        MOCLDY    50  48  93 N9        30.34F
MARSHFIELD     CLOUDY    52  47  83 N9        30.34S
6HR MIN TEMP:  51; 6HR MAX TEMP:  55;

STEVENS POINT  PTCLDY    47  47 100 CALM      30.33F
WAUPACA        CLOUDY    58  55  89 N6        30.31S
WAUTOMA        LGT RAIN  56  53  90 N7        30.30S FOG
6HR MIN TEMP:  55; 6HR MAX TEMP:  57;

WISC RAPIDS    CLOUDY    53  50  89 NE9       30.33F
6HR MIN TEMP:  51; 6HR MAX TEMP:  55;

CAMP DOUGLAS   NOT AVBL
$$

WIZ011>013-019>022-031-037>040-048>050-301300-
NORTHEAST WISCONSIN

CITY           SKY/WX    TMP DP  RH WIND       PRES   REMARKS
ANTIGO         CLOUDY    50  49  96 NE6       30.36S
SHAWANO        CLOUDY    58  53  84 NE10      30.34R
OCONTO         NOT AVBL
STURGEON BAY   CLOUDY    62  57  83 NE13      30.31F
6HR MIN TEMP:  58; 6HR MAX TEMP:  62;

GREEN BAY      CLOUDY    58  58 100 N9        30.29F
6HR MIN TEMP:  56; 6HR MAX TEMP:  59;

MANITOWOC      NOT AVBL
APPLETON       CLOUDY    55  55 100 N14G20    30.27F
CLINTONVILLE   CLOUDY    55  52  88 N7        30.32S
OSHKOSH        CLOUDY    59  56  89 NE15      30.27S
6HR MIN TEMP:  58; 6HR MAX TEMP:  60; 6HR PCP: TRACE;

$$

WIZ032>034-041-042-053>061-301300-
SOUTHWEST WISCONSIN

CITY           SKY/WX    TMP DP  RH WIND       PRES   REMARKS
LA CROSSE      MOCLDY    55  52  89 NW7       30.33S
6HR MIN TEMP:  52; 6HR MAX TEMP:  56;

SPARTA         MOCLDY    49  49  97 N3        30.33F
VIROQUA        CLOUDY    53  52  94 N6        30.31F
BOSCOBEL       CLOUDY    59  53  80 NE6       30.28F
6HR MIN TEMP:  50; 6HR MAX TEMP:  60;

PRAIRIE DU CHI CLOUDY    57  52  81 N6        30.28F
PLATTEVILLE    CLOUDY    57  56  97 N10G16    30.25S
$$

WIZ056-057-062-063-064-067-068-301300-
SOUTH CENTRAL WISCONSIN

CITY           SKY/WX    TMP DP  RH WIND       PRES   REMARKS
REEDSBURG      NOT AVBL
BARABOO/DELLS  CLOUDY    56  53  89 N6        30.28S
LONE ROCK      NOT AVBL
MINERAL POINT  CLOUDY    57  55  94 N9        30.26S
MADISON        CLOUDY    57  55  93 N10       30.24S
6HR MIN TEMP:  56; 6HR MAX TEMP:  58;

MIDDLETON      CLOUDY    58  58  98 N9        30.25S
WATERTOWN      CLOUDY    59  58  97 NE9       30.23S
MONROE         CLOUDY    57  55  94 N14       30.22S
JANESVILLE     CLOUDY    63  57  82 N9G16     30.20S
$$

WIZ051-052-058>065-066-070>072-301300-
SOUTHEAST WISCONSIN

CITY           SKY/WX    TMP DP  RH WIND       PRES   REMARKS
MILWAUKEE      LGT RAIN  59  56  89 N12       30.22R
6HR MIN TEMP:  59; 6HR MAX TEMP:  62; 6HR PCP:  0.01;

WAUKESHA       CLOUDY    57  54  88 NE12G20   30.23S
MILWAUKEE/TIMM DRIZZLE   59  54  82 NE12G20   30.24R
RACINE         LGT RAIN  61  58  90 NE9       30.22R
6HR MIN TEMP:  60; 6HR MAX TEMP:  62; 6HR PCP:  0.02;

BURLINGTON     CLOUDY    56  56  97 NE7       30.21S
KENOSHA        LGT RAIN  61  58  90 NE10      30.20R FOG
6HR MIN TEMP:  60; 6HR MAX TEMP:  62; 6HR PCP:  0.01;

FOND DU LAC    CLOUDY    59  57  93 N13       30.27S
6HR MIN TEMP:  59; 6HR MAX TEMP:  61; 6HR PCP: TRACE;

SHEBOYGAN      CLOUDY    60  55  83 NE14      30.25F
6HR MIN TEMP:  60; 6HR MAX TEMP:  61; 6HR PCP: TRACE;

WEST BEND      CLOUDY    64  64 100 NE8       30.23F
JUNEAU         CLOUDY    58  55  92 N9G17     30.25F
$$

LSZ147-162-301300-
LAKE SUPERIOR

STATION/POSITION TIME  TEMP    WIND        PRES    WAVE
                       AIR SEA DIR/SP/G            HT/PER
                 (UTC) (F)     (DEG/KT/KT) (MB)    (FT/S)
W MID LAKE BUOY  1050   56 56   50/  8/ 12 1031.0F   1/ 5
DEVILS ISLAND    1100   53      40/ 12/ 12 1031.6F
SAXON HARBOR     1100   49     200/  2/  3 1030.5
$$

LMZ867-665-643>646-301300-
LAKE MICHIGAN

STATION/POSITION TIME  TEMP    WIND        PRES    WAVE
                       AIR SEA DIR/SP/G            HT/PER
                 (UTC) (F)     (DEG/KT/KT) (MB)    (FT/S)
CHAMBERS ISLAND  1100   62      20/ 14/ 17 1026.8R
S GREEN BAY BUOY 1000   59 62   30/ 16/ 17 1025.6S
N MID LAKE BUOY  1050   63 65   80/ 17/ 21 1026.4R   4/ 5
NORTHPORT PIER   1100   63      60/ 16/ 20 1027.1R
SISTER BAY       1138   62     110/  6/  9   N/A
KEWAUNEE LAKESHO 1100   62      40/  8/ 13 1025.3R
SHEBOYGAN LAKESH 1100   61      40/ 20/ 22 1024.0R
PORT WASHINGTON  1100   60      40/ 10/ 14 1024.0S
ATWATER BUOY     1100   56 52  360/  8/ 12 1023.1R
MILWAUKEE LAKESH 1110   59      20/ 12/ 13   N/A
S MID LAKE BUOY  1050   63 68   60/ 17/ 19 1021.4R   5/ 6
KENOSHA   LAKESH 1100   62      40/ 17/ 20 1021.7S
$$

TC  - TEMPERATURE IN CELSIUS
VSB - VISIBILITY IN STATUTE MILES
WCI - WIND CHILL INDEX
HX  - HEAT INDEX





USA.gov is the U.S. government's official web portal to all federal, state and local government web resources and services.